Regional Weather Roundup
Issued by NWS

Home | Current Version | Previous Version | Graphics & Text | Print | Product List | Glossary On
Versions: 1 2 3 4 5 6 7 8 9 10 11 12 13 14 15 16 17 18 19 20 21 22 23 24 25 26 27 28 29 30 31 32 33 34 35 36 37 38 39 40 41 42 43 44 45 46 47 48 49 50
000
ASUS45 KBOU 100107
RWRCO

WEATHER ROUNDUP FOR COLORADO
NATIONAL WEATHER SERVICE DENVER/BOULDER CO
600 PM MST FRI DEC 09 2016

NOTE: "FAIR" INDICATES FEW OR NO CLOUDS BELOW 12000 FEET WITH NO
SIGNIFICANT WEATHER AND/OR OBSTRUCTIONS TO VISIBILITY.

COZ001>005-013-030-031-100200-
...NORTHWEST COLORADO...

CITY           SKY/WX    TMP DP  RH WIND       PRES   REMARKS
CRAIG          CLOUDY    33  26  75 E7        30.18S WCI  27
HAYDEN         CLOUDY    28  23  80 E3        30.19R
MEEKER         CLOUDY    38  24  57 W10       30.19S
MOUNT WERNER   NOT AVBL
STEAMBOAT SPGS CLOUDY    27  25  94 CALM      30.19S
WALDEN           N/A     32  25  74 S12G18    30.17S WCI  23
$$

COZ006>008-011-100200-
...WEST CENTRAL VALLEYS...

CITY           SKY/WX    TMP DP  RH WIND       PRES   REMARKS
GRAND JUNCTION CLOUDY    31  20  63 NE5       30.26S WCI  26
MONTROSE       CLOUDY    34  20  56 CALM      30.27S
EAGLE          CLOUDY    34  27  75 CALM      30.24F
RIFLE          CLOUDY    31  21  66 CALM      30.26S
DELTA          CLOUDY    35  20  54 CALM      30.27S
NUCLA          FAIR      41  21  45 SW3       30.28S
$$

COZ017>023-064>068-100200-
...SOUTHWEST COLORADO...

CITY           SKY/WX    TMP DP  RH WIND       PRES   REMARKS
DURANGO        FAIR      32  18  56 E5        30.28R WCI  27
CORTEZ         FAIR      33  25  72 NE5       30.27S WCI  29
PAGOSA SPRINGS FAIR      27  18  68 CALM      30.30S
TELLURIDE      NOT AVBL
WOLF CREEK PAS FAIR      18  18 100 S12       30.37S WCI   5
$$

COZ009-010-012-014-032>034-037-058>063-100200-
...CENTRAL COLORADO...

CITY           SKY/WX    TMP DP  RH WIND       PRES   REMARKS
ASPEN          CLOUDY    30  27  88 S5        30.23S WCI  25
BUENA VISTA    MOCLDY    39  19  45 CALM      30.17S
COPPER MTN     LGT SNOW  25  19  80 MISG      30.24S
BERTHOUD PASS  LGT SNOW  16   5  62 W36G49    30.14F VSB 1   WCI  -6
COTTONWOOD PAS FAIR      34  21  60 W20G30    30.18S WCI  22
GUNNISON       FAIR      27  22  81 CALM      30.28R
KREMMLING      CLOUDY    37  30  75 W9        30.20F
LEADVILLE      CLOUDY    27  19  72 N8        30.22R WCI  19
MONARCH PASS   CLOUDY    21  19  93 W46G54    30.34R WCI   0
SALIDA         FAIR      43  19  38 SW16G33   30.24R
SUNLIGHT       CLOUDY    23  21  93 SW15G24   30.27F WCI  10
WILKERSON PASS FAIR      25  18  74 W8G16     30.21S WCI  16
$$

COZ069>075-100200-
...SAN LUIS VALLEY/SANGRE DE CRISTO MOUNTAINS...

CITY           SKY/WX    TMP DP  RH WIND       PRES   REMARKS
ALAMOSA        FAIR      28  19  69 W3        30.23S
LA VETA PASS   FAIR      28  19  69 NE13G21   30.25R WCI  18
SAGUACHE       FAIR      27  16  63 CALM      30.26R
$$

COZ035-036-038>040-100200-
...NORTHERN COLORADO FRONT RANGE...

CITY           SKY/WX    TMP DP  RH WIND       PRES   REMARKS
DENVER INTL AP MOCLDY    30  23  75 SE12      30.09S WCI  20
DMNS CITY PARK   N/A     33  26  76 N6        30.10S WCI  28
AURORA         MOCLDY    34  28  78 SE12      30.10R WCI  26
FRONT RANGE AP MOCLDY    32  27  80 E10       30.11S WCI  24
ERIE MUNI ARPT CLOUDY    26  22  85 CALM      30.13R
BOULDER MUN AP CLOUDY    30  23  74 CALM      30.11S
CENTENNIAL     MOCLDY    40  25  55 SE9       30.10R
BROOMFIELD     MOCLDY    34  25  69 NW8G20    30.10R WCI  27
FORT COLLINS   FAIR      28  19  69 CALM      30.15R
LONGMONT       FAIR      26  20  77 N7        30.14S WCI  18
$$

COZ041-046-047-076>085-087-088-100200-
...PIKES PEAK/PALMER DIVIDE AND SOUTHERN FOOTHILLS...

CITY           SKY/WX    TMP DP  RH WIND       PRES   REMARKS
COLO. SPRINGS  FAIR      38  20  48 E3        30.12R
A. F. ACADEMY  FAIR      37  26  64 S5        30.11R
SCHRIEVER AFB  NOT AVBL
ELLICOTT       LGT RAIN N/A N/A N/A CALM      30.09S
FALCON         FAIR      35  22  59 SW3       30.12F
FORT CARSON    FAIR      36  19  49 E5        30.09S
LIMON          FAIR      31  21  66 VRB3      30.12R
MONUMENT HILL  FAIR      34  21  60 E5        30.13R WCI  30
TRINIDAD       FAIR      48  18  30 W5        30.13R
$$

COZ042>045-048>051-090-091-100200-
...NORTHEAST COLORADO...

CITY           SKY/WX    TMP DP  RH WIND       PRES   REMARKS
GREELEY ARPT   FAIR      26  19  74 NE5       30.15R WCI  20
AKRON          FAIR      21  14  74 SE12      30.15R WCI   9
BURLINGTON     FAIR      26  17  68 SE7       30.17F WCI  18
WRAY           FAIR      27  19  74 E3        30.21S
STERLING       FAIR      23  18  80 NE6       30.17S WCI  16
HOLYOKE        FAIR      23  18  80 E6        30.21S WCI  16
FORT MORGAN    FAIR      23  18  81 NE8       30.15S WCI  13
$$

COZ086-089-092>099-100200-
...SOUTHEAST COLORADO...

CITY           SKY/WX    TMP DP  RH WIND       PRES   REMARKS
PUEBLO         FAIR      30  12  47 E9        30.11R WCI  22
LA JUNTA       FAIR      31  11  43 NE9       30.10F WCI  23
LAMAR          FAIR      30  12  47 E5        30.13S WCI  25
SPRINGFIELD      N/A     30  20  66 SW5       30.15S WCI  25
$$



USA.gov is the U.S. government's official web portal to all federal, state and local government web resources and services.